Waarnemingen

Advertentie
Mijn weer
Bournemouth Airport, Groot Brittannië (3862): temperatuur & dauwpunt: 07.11.2019 21:00:00 - 13.11.2019 21:00:00 (GMT)Bournemouth Airport, Groot Brittannië (3862): temperatuur -20cm & temperatuur -100cm: 07.11.2019 21:00:00 - 13.11.2019 21:00:00 (GMT)Bournemouth Airport, Groot Brittannië (3862): windsnelheid & windstoten: 07.11.2019 21:00:00 - 13.11.2019 21:00:00 (GMT)Bournemouth Airport, Groot Brittannië (3862): windrichting: 07.11.2019 21:00:00 - 13.11.2019 21:00:00 (GMT)Bournemouth Airport, Groot Brittannië (3862): luchtdruk: 07.11.2019 21:00:00 - 13.11.2019 21:00:00 (GMT)Bournemouth Airport, Groot Brittannië (3862): zicht: 07.11.2019 21:00:00 - 13.11.2019 21:00:00 (GMT)Bournemouth Airport, Groot Brittannië (3862): Zonneschijnduur: 07.11.2019 21:00:00 - 13.11.2019 21:00:00 (GMT)Bournemouth Airport, Groot Brittannië (3862): neerslag: 07.11.2019 21:00:00 - 13.11.2019 21:00:00 (GMT)
Datum & Tijd tt [°C] td [°C] tt -20cm [°C] tt -100cm [°C] ff [km/u] ff [kn] fx [km/u] fx [kn] dd ppp [hPa] vv [km] sd [min] rr [mm]
13.11.2019 21:00:00 5,6 4,8 - - 4 2 - - ZZO 989,1 35 0 -
13.11.2019 20:00:00 5,6 4,5 - - 9 5 - - ZW 989,4 25 0 6,2
13.11.2019 19:00:00 9,4 6,0 - - 37 20 59 32 ZZO 989,4 10 0 0,2
13.11.2019 18:00:00 7,6 6,0 - - 18 10 - - ZO 991,2 30 0 1,0
13.11.2019 17:00:00 8,1 6,5 - - 16 9 - - Z 993,0 24 0 1,2
13.11.2019 16:00:00 8,7 4,3 - - 11 6 - - ZZO 994,5 10 0 0,0
13.11.2019 15:00:00 9,7 3,4 - - 15 8 - - ZZW 996,5 35 0 0,0
13.11.2019 14:00:00 9,4 3,0 - - 9 5 - - ZZW 998,0 10 0 0,0
13.11.2019 13:00:00 9,4 2,9 - - 15 8 - - ZW 999,4 40 18 0,0
13.11.2019 12:00:00 10,5 3,7 - - 13 7 - - ZW 1000,4 27 60 0,0
13.11.2019 11:00:00 9,1 4,6 - - 11 6 - - W 1001,8 30 54 0,0
13.11.2019 10:00:00 7,5 5,7 - - 9 5 - - W 1002,8 10 18 0,0
13.11.2019 09:00:00 5,2 4,4 8,0 10,0 8 4 - - W 1003,2 10 12 0,0
13.11.2019 08:00:00 3,3 2,7 - - 11 6 - - W 1003,2 29 0 0,0
13.11.2019 07:00:00 3,8 3,2 - - 8 4 - - W 1003,2 29 0 0,0
13.11.2019 06:00:00 3,4 2,4 - - 8 4 - - WZW 1003,4 28 0 0,0
13.11.2019 05:00:00 3,0 2,2 - - 4 2 - - WNW 1003,3 27 0 0,0
13.11.2019 04:00:00 2,7 1,9 - - 11 6 - - W 1002,9 26 0 0,0
13.11.2019 03:00:00 4,0 3,1 - - 8 4 - - WZW 1002,8 26 0 0,0
13.11.2019 02:00:00 4,2 2,8 - - 13 7 - - WNW 1003,1 29 0 0,0
13.11.2019 01:00:00 5,9 4,1 - - 16 9 - - NW 1003,2 30 0 0,0
13.11.2019 00:00:00 5,7 3,5 - - 11 6 - - NW 1003,1 30 - 0,0
12.11.2019 23:00:00 6,6 4,1 - - 16 9 - - WNW 1002,9 30 0 0,0
12.11.2019 22:00:00 7,5 4,6 - - 21 11 - - WNW 1002,5 30 0 0,0
12.11.2019 21:00:00 7,9 4,9 - - 21 11 - - WNW 1002,1 10 0 0,0
12.11.2019 20:00:00 8,1 5,3 - - 21 11 - - WNW 1001,7 35 0 0,0
12.11.2019 19:00:00 8,3 5,3 - - 24 13 - - WNW 1001,1 10 0 0,0
12.11.2019 18:00:00 8,0 5,0 - - 28 15 - - WNW 1000,5 30 0 0,0
12.11.2019 17:00:00 7,9 5,2 - - 24 13 - - W 1000,1 10 0 0,0
12.11.2019 16:00:00 7,8 5,1 - - 26 14 - - W 999,6 10 0 0,2
12.11.2019 15:00:00 7,8 4,7 - - 21 11 48 26 W 999,7 10 0 0,2
12.11.2019 14:00:00 8,1 4,5 - - 24 13 57 31 W 999,8 10 18 0,0
12.11.2019 13:00:00 9,1 2,7 - - 34 18 48 26 W 1000,0 10 36 0,0
12.11.2019 12:00:00 9,0 2,5 - - 28 15 - - W 1000,6 10 60 0,0
12.11.2019 11:00:00 8,3 3,1 - - 22 12 - - W 1001,4 10 60 0,0
12.11.2019 10:00:00 7,0 2,5 - - 16 9 - - W 1001,5 10 54 0,0
12.11.2019 09:00:00 5,0 2,0 8,2 10,2 21 11 - - W 1001,7 10 30 0,0
12.11.2019 08:00:00 3,4 1,0 - - 15 8 - - W 1001,8 10 0 0,0
12.11.2019 07:00:00 2,9 1,0 - - 11 6 - - WZW 1001,8 10 0 0,0
12.11.2019 06:00:00 2,9 1,0 - - 16 9 - - W 1002,0 10 0 0,0
12.11.2019 05:00:00 3,6 1,2 - - 16 9 - - W 1002,1 40 0 0,0
12.11.2019 04:00:00 3,4 1,3 - - 16 9 - - W 1002,3 45 0 0,0
12.11.2019 03:00:00 4,5 2,4 - - 18 10 - - W 1002,5 40 0 0,0
12.11.2019 02:00:00 3,7 2,0 - - 15 8 - - W 1002,9 45 0 0,0
12.11.2019 01:00:00 3,1 2,1 - - 11 6 - - WZW 1003,2 45 0 0,6
12.11.2019 00:00:00 5,3 3,0 - - 15 8 - - WNW 1003,7 35 - 0,0
11.11.2019 23:00:00 5,3 2,1 - - 16 9 - - W 1003,7 35 0 0,0
11.11.2019 22:00:00 5,5 2,1 - - 21 11 - - W 1003,8 35 0 0,0
11.11.2019 21:00:00 5,2 1,8 - - 9 5 - - W 1004,1 10 0 0,0
11.11.2019 20:00:00 4,8 2,0 - - 9 5 - - W 1004,1 10 0 0,0
11.11.2019 19:00:00 5,5 2,4 - - 18 10 - - W 1004,1 10 0 0,0
11.11.2019 18:00:00 5,8 3,0 - - 15 8 - - WZW 1004,3 10 0 0,2
11.11.2019 17:00:00 6,0 2,0 - - 15 8 - - WZW - 10 - -
11.11.2019 16:00:00 8,0 3,0 - - 22 12 - - W - 10 - 0,0
11.11.2019 15:00:00 10,0 3,0 - - 22 12 - - W - 10 - 0,0
11.11.2019 14:00:00 10,0 3,0 - - 26 14 - - WNW - 10 - 0,0
11.11.2019 13:00:00 10,0 2,0 - - 35 19 - - WNW - 10 - 0,0
11.11.2019 12:00:00 9,0 3,0 - - 35 19 - - WNW - 10 - 0,0
11.11.2019 11:00:00 9,0 4,0 - - 35 19 - - WNW - 10 - 0,0
11.11.2019 10:00:00 9,0 4,0 - - 26 14 - - WNW - 10 - 0,0
11.11.2019 09:00:00 8,0 4,0 - - 24 13 - - WNW - 10 - 0,0
11.11.2019 08:00:00 7,0 4,0 - - 21 11 - - WNW - 10 - 0,0
11.11.2019 07:00:00 7,0 4,0 - - 21 11 - - NW - 10 - 0,0
11.11.2019 06:00:00 8,0 5,0 - - 24 13 - - WNW - 10 - 0,0
11.11.2019 05:00:00 - - - - - - - - - - - - 0,8
11.11.2019 04:00:00 - - - - - - - - - - - - 1,0
11.11.2019 03:00:00 - - - - - - - - - - - - 0,4
11.11.2019 02:00:00 - - - - - - - - - - - - 0,4
11.11.2019 01:00:00 - - - - - - - - - - - - -
11.11.2019 00:00:00 - - - - - - - - - - - - 0,0
10.11.2019 23:00:00 5,0 4,0 - - 4 2 - - NW - 7 - -
10.11.2019 22:00:00 4,0 4,0 - - 2 1 - - Z - 7 - 0,0
10.11.2019 21:00:00 4,0 3,0 - - 5 3 - - NW - 8 - 0,0
10.11.2019 20:00:00 3,0 3,0 - - 8 4 - - NNW - 7 - -
10.11.2019 19:00:00 4,0 3,0 - - 4 2 - - ZO - 7 - -
10.11.2019 18:00:00 3,0 3,0 - - 4 2 - - WNW - 6 - 0,0
10.11.2019 17:00:00 6,0 4,0 - - 4 2 - - O - 10 - 0,0
10.11.2019 16:00:00 8,0 4,0 - - 8 4 - - N - 10 - -
10.11.2019 15:00:00 9,0 5,0 - - 15 8 - - NNO - 10 - 0,0
10.11.2019 14:00:00 9,0 5,0 - - 16 9 - - NO - 10 - -
10.11.2019 13:00:00 10,0 6,0 - - 15 8 - - NO - 10 - 0,0
10.11.2019 12:00:00 9,0 6,0 - - 16 9 - - NNO - 10 - -
10.11.2019 11:00:00 8,0 6,0 - - 18 10 - - NNO - 10 - 0,0
10.11.2019 10:00:00 8,0 6,0 - - 21 11 - - NNO - 10 - -
10.11.2019 09:00:00 7,0 6,0 - - 21 11 - - NO - 10 - 0,0
10.11.2019 08:00:00 7,0 6,0 - - 18 10 - - NO - 10 - -
10.11.2019 07:00:00 7,0 6,0 - - 15 8 - - NO - 10 - 0,0
10.11.2019 06:00:00 - - - - - - - - - - - - 0,0
10.11.2019 05:00:00 - - - - - - - - - - - - -
10.11.2019 04:00:00 - - - - - - - - - - - - -
10.11.2019 03:00:00 - - - - - - - - - - - - 0,0
10.11.2019 02:00:00 - - - - - - - - - - - - 0,0
10.11.2019 01:00:00 - - - - - - - - - - - - -
10.11.2019 00:00:00 - - - - - - - - - - - - -
09.11.2019 23:00:00 - - - - - - - - - - - - 0,0
09.11.2019 22:00:00 - - - - - - - - - - - - -
09.11.2019 21:00:00 3,0 2,0 - - 13 7 - - WNW - 7 - -
09.11.2019 20:00:00 - - - - - - - - - - - - 0,0
09.11.2019 19:00:00 4,0 4,0 - - 9 5 - - WNW - 8 - -
09.11.2019 18:00:00 6,0 4,0 - - 11 6 - - WNW - 10 - -
09.11.2019 17:00:00 7,0 4,0 - - 15 8 - - W - 10 - -
09.11.2019 16:00:00 8,0 6,0 - - 21 11 - - W - 10 - -
09.11.2019 15:00:00 8,0 7,0 - - 21 11 - - W - 10 - -
09.11.2019 14:00:00 10,0 8,0 - - 18 10 - - ZZW - 10 - -
09.11.2019 13:00:00 9,0 8,0 - - 22 12 - - ZZO - 6 - -
09.11.2019 12:00:00 9,0 8,0 - - 16 9 - - Z - 4,0 - -
09.11.2019 11:00:00 9,0 8,0 - - 13 7 - - ZZO - 7 - -
09.11.2019 10:00:00 3,0 3,0 - - 15 8 - - O - 10 - -
09.11.2019 09:00:00 0,0 0,0 - - 8 4 - - NO - 10 - -
09.11.2019 08:00:00 - - - - - - - - - - - - -
09.11.2019 07:00:00 -3,0 -3,0 - - 4 2 - - NO - 8 - 0,0
09.11.2019 06:00:00 - - - - - - - - - - - - -
09.11.2019 05:00:00 - - - - - - - - - - - - -
09.11.2019 04:00:00 - - - - - - - - - - - - -
09.11.2019 03:00:00 - - - - - - - - - - - - 0,0
09.11.2019 02:00:00 - - - - - - - - - - - - 0,0
09.11.2019 01:00:00 -0,1 -0,7 - - 8 4 - - W 1013,4 17 0 0,0
09.11.2019 00:00:00 0,0 -0,5 - - 11 6 - - W 1013,3 13 - 0,0
08.11.2019 23:00:00 -0,2 -0,9 - - 5 3 - - W 1013,0 18 0 0,0
08.11.2019 22:00:00 1,4 0,8 - - 9 5 - - WZW 1013,2 14 0 0,0
08.11.2019 21:00:00 0,4 -0,9 - - 8 4 - - WNW 1012,9 10 0 0,0
08.11.2019 20:00:00 3,3 2,0 - - 4 2 - - N 1012,5 25 0 0,0
08.11.2019 19:00:00 2,1 0,4 - - 13 7 - - W 1012,3 10 0 0,0
08.11.2019 18:00:00 4,3 1,3 - - 8 4 - - NW 1011,9 10 0 0,0
08.11.2019 17:00:00 6,0 2,1 - - 13 7 - - NNW 1011,3 10 0 0,0
08.11.2019 16:00:00 7,5 3,1 - - 18 10 - - N 1010,7 10 0 0,0
08.11.2019 15:00:00 8,7 4,3 - - 22 12 - - N 1009,4 35 24 0,0
08.11.2019 14:00:00 8,9 5,3 - - 22 12 - - N 1008,8 35 18 0,0
08.11.2019 13:00:00 8,2 5,5 - - 24 13 - - N 1008,2 10 0 0,0
08.11.2019 12:00:00 6,7 5,6 - - 21 11 - - N 1007,9 8 0 0,2
08.11.2019 11:00:00 7,0 5,5 - - 22 12 - - N 1007,2 23 12 0,0
08.11.2019 10:00:00 6,6 6,4 - - 16 9 - - N 1006,4 17 24 0,0
08.11.2019 09:00:00 2,5 2,3 9,5 11,5 4 2 - - WNW 1005,8 5 18 0,0
08.11.2019 08:00:00 -1,0 -1,2 - - 4 2 - - NNW 1005,1 6 0 0,0
08.11.2019 07:00:00 -1,3 -1,5 - - 5 3 - - NNW 1004,0 11 0 0,0
08.11.2019 06:00:00 -0,8 -0,9 - - 0 0 - - N 1002,9 0,1 0 0,0
08.11.2019 05:00:00 -0,9 -1,1 - - 5 3 - - N 1002,1 6 0 0,0
08.11.2019 04:00:00 -0,5 -0,8 - - 2 1 - - WNW 1001,1 0,4 0 0,0
08.11.2019 03:00:00 0,0 -0,2 - - 4 2 - - NNW 1000,2 4,5 0 0,0
08.11.2019 02:00:00 -0,4 -0,7 - - 4 2 - - NW 999,6 2,1 0 0,0
08.11.2019 01:00:00 0,3 0,1 - - 5 3 - - NW 999,1 4,2 0 0,0
08.11.2019 00:00:00 0,4 0,2 - - 4 2 - - NW 998,5 1,8 - 0,0
07.11.2019 23:00:00 1,1 0,7 - - 4 2 - - NNW 997,7 2,3 0 0,0
07.11.2019 22:00:00 2,0 1,7 - - 8 4 - - N 997,3 11 0 0,0
07.11.2019 21:00:00 1,4 1,0 - - 4 2 - - NNW 996,9 2,9 0 0,0

tt = temperatuur
td = dauwpunt
tt -20cm = temperatuur -20cm
tt -100cm = temperatuur -100cm
ff = windsnelheid
fx = windstoten
dd = windrichting
ppp = luchtdruk
vv = zicht
sd = Zonneschijnduur
rr = neerslag

Weerstations in de omgeving